SCP
0 0 0 0 0 0 0 0 0 0 0 0 0 0 0 0 0 0 0 0 0 0
0 0 0 0 0 0 0 0 0 0 0 0 0 0 0 0 0 0 0 0 0 0
0 0 0 0 0 0 0 0 0 0 0 0 0 0 0 0 0 0 0 0 0 0
0 0 0 0 0 0 0 0 0 0 0 0 0 0 0 0 0 0 0 0 0 0
-0 0 0 0 0 0 0 0 -0 0 0 0 0 0 0 0 0 0 0 0 0 0
0 -0 0 0 0 0 0 0 0 0 0 0 0 0 0 0 0 0 0 0 0 0
-0 -0 0 0 0 0 0 0 0 0 0 0 0 0 0 0 0 0 0 0 0 0
-0 -0 -0 0 0 0 0 0 0 0 0 0 0 0 0 0 0 0 0 0 0 0
0 0 0 -0 0 0 0 0 0 0 0 0 0 0 0 0 0 0 0 0 0 0
-0 -0 0 0 0 0 0 0 0 0 0 0 0 0 0 0 0 0 0 0 0 0
-0 -0 -0 0 0 0 0 0 0 0 0 0 0 0 0 0 0 0 0 0 0 0
-0 -0 -0 -0 0 0 0 0 0 0 0 0 0 0 0 0 0 0 0 0 0 0
0 -0 -0 -0 -0 -0 -0 0 0 0 0 0 0 0 0 0 0 0 0 0 0 0
0 0 -0 -0 -0 -0 -0 -0 0 0 0 0 0 0 0 0 0 0 0 0 0 0
Wind_Speed_500mb
87 84 87 88 84 77 80 72 74 69 53 49 50 48 43 38 33 30 27 22 20 16
74 69 77 74 72 75 80 75 80 68 56 51 51 48 45 41 36 34 29 25 22 18
45 49 70 59 54 58 54 71 80 69 52 51 50 53 48 42 41 39 36 31 28 24
20 31 51 47 56 64 62 75 63 55 31 47 55 55 47 47 48 45 43 39 35 30
26 21 27 41 44 55 45 35 36 37 75 69 68 56 56 54 55 51 52 51 47 39
24 17 22 29 37 44 48 62 65 72 75 73 66 69 62 64 69 60 60 58 53 46
43 37 16 22 37 42 53 54 59 58 56 62 73 70 56 66 80 67 64 65 59 54
37 38 36 19 20 33 37 43 52 54 56 61 67 67 65 72 70 64 72 71 65 60
35 36 36 33 22 17 20 26 34 45 53 49 63 75 87 80 82 74 79 74 66 63
30 32 34 33 29 24 26 35 43 44 46 57 62 61 77 74 85 73 73 82 74 68
39 39 40 36 33 28 28 37 41 39 34 39 48 42 45 61 74 82 71 53 68 71
35 40 41 44 40 38 33 28 33 39 49 45 40 44 36 39 70 88 60 70 78 86
37 40 40 44 43 40 38 33 29 30 34 32 35 28 24 33 49 65 71 63 60 91
36 37 40 40 42 37 37 40 30 28 37 41 39 34 27 42 41 39 44 57 63 83
Wind_Direction_500mb
237 239 241 240 241 235 222 227 226 225 228 228 227 227 227 228 227 221 222 228 232 229
234 244 244 240 240 233 224 232 228 223 222 222 223 227 230 231 233 230 226 228 229 234
231 242 260 255 271 245 234 233 232 223 222 226 224 229 225 233 231 233 231 228 225 234
273 243 234 226 236 253 251 248 250 234 249 267 241 230 236 235 234 236 233 229 227 224
331 287 247 237 217 234 249 244 309 270 262 237 239 235 223 239 240 235 235 231 224 226
11 320 287 249 246 251 230 219 234 234 260 242 235 226 223 230 248 240 238 237 233 228
353 356 344 262 247 241 247 245 231 259 247 243 232 230 244 220 234 239 237 241 237 236
348 356 350 342 256 230 234 252 245 247 240 242 248 240 245 233 234 237 235 236 237 235
336 347 354 350 326 270 241 255 254 246 252 256 246 246 249 256 241 237 232 229 234 239
343 346 347 356 343 316 268 255 251 250 257 260 258 254 256 260 247 234 235 235 225 238
328 331 331 334 339 340 297 270 261 254 253 273 259 256 256 253 248 248 244 237 220 232
324 325 324 325 330 327 329 309 266 260 260 264 261 255 252 246 241 228 242 239 214 211
316 324 327 327 327 327 321 319 284 264 251 241 247 266 252 241 249 243 239 227 213 224
305 319 323 334 327 330 326 317 309 275 243 235 251 242 228 243 245 236 245 235 224 220
Wind_Speed_850mb
87 84 87 88 84 77 80 72 74 69 53 49 50 48 43 38 33 30 27 22 20 16
74 69 77 74 72 75 80 75 80 68 56 51 51 48 45 41 36 34 29 25 22 18
45 49 70 59 54 58 54 71 80 69 52 51 50 53 48 42 41 39 36 31 28 24
20 31 51 47 56 64 62 75 63 55 31 47 55 55 47 47 48 45 43 39 35 30
26 21 27 41 44 55 45 35 36 37 75 69 68 56 56 54 55 51 52 51 47 39
24 17 22 29 37 44 48 62 65 72 75 73 66 69 62 64 69 60 60 58 53 46
43 37 16 22 37 42 53 54 59 58 56 62 73 70 56 66 80 67 64 65 59 54
37 38 36 19 20 33 37 43 52 54 56 61 67 67 65 72 70 64 72 71 65 60
35 36 36 33 22 17 20 26 34 45 53 49 63 75 87 80 82 74 79 74 66 63
30 32 34 33 29 24 26 35 43 44 46 57 62 61 77 74 85 73 73 82 74 68
39 39 40 36 33 28 28 37 41 39 34 39 48 42 45 61 74 82 71 53 68 71
35 40 41 44 40 38 33 28 33 39 49 45 40 44 36 39 70 88 60 70 78 86
37 40 40 44 43 40 38 33 29 30 34 32 35 28 24 33 49 65 71 63 60 91
36 37 40 40 42 37 37 40 30 28 37 41 39 34 27 42 41 39 44 57 63 83
Wind_Direction_850mb
237 239 241 240 241 235 222 227 226 225 228 228 227 227 227 228 227 221 222 228 232 229
234 244 244 240 240 233 224 232 228 223 222 222 223 227 230 231 233 230 226 228 229 234
231 242 260 255 271 245 234 233 232 223 222 226 224 229 225 233 231 233 231 228 225 234
273 243 234 226 236 253 251 248 250 234 249 267 241 230 236 235 234 236 233 229 227 224
331 287 247 237 217 234 249 244 309 270 262 237 239 235 223 239 240 235 235 231 224 226
11 320 287 249 246 251 230 219 234 234 260 242 235 226 223 230 248 240 238 237 233 228
353 356 344 262 247 241 247 245 231 259 247 243 232 230 244 220 234 239 237 241 237 236
348 356 350 342 256 230 234 252 245 247 240 242 248 240 245 233 234 237 235 236 237 235
336 347 354 350 326 270 241 255 254 246 252 256 246 246 249 256 241 237 232 229 234 239
343 346 347 356 343 316 268 255 251 250 257 260 258 254 256 260 247 234 235 235 225 238
328 331 331 334 339 340 297 270 261 254 253 273 259 256 256 253 248 248 244 237 220 232
324 325 324 325 330 327 329 309 266 260 260 264 261 255 252 246 241 228 242 239 214 211
316 324 327 327 327 327 321 319 284 264 251 241 247 266 252 241 249 243 239 227 213 224
305 319 323 334 327 330 326 317 309 275 243 235 251 242 228 243 245 236 245 235 224 220